| time (UTC) | temp F | wind direction | speed MPH | gust MPH | rain 1hr in | rain 24hr in | rain mn in | humidity % | barometer mb |
| 20260506084708 | 24 | 272 | 0.0 | 0.0 | 0.00 | 0.00 | 0.00 | 60 | 1021.7 |
| 20260506084204 | 24 | 271 | 0.0 | 0.0 | 0.00 | 0.00 | 0.00 | 60 | 1021.8 |
| 20260506083701 | 24 | 265 | 0.0 | 0.0 | 0.00 | 0.00 | 0.00 | 65 | 1021.7 |
| 20260506083159 | 24 | 236 | 0.0 | 0.0 | 0.00 | 0.00 | 0.00 | 65 | 1021.8 |
| 20260506082656 | 24 | 229 | 0.0 | 0.0 | 0.00 | 0.00 | 0.00 | 64 | 1021.8 |
| 20260506082156 | 24 | 227 | 0.0 | 0.0 | 0.00 | 0.00 | 0.00 | 62 | 1021.7 |
| 20260506081654 | 25 | 213 | 0.0 | 0.0 | 0.00 | 0.00 | 0.00 | 59 | 1022.1 |
| 20260506081152 | 29 | 306 | 0.0 | 0.0 | 0.00 | 0.00 | 0.00 | 53 | 1022.0 |
| 20260506080650 | 29 | 311 | 0.0 | 0.0 | 0.00 | 0.00 | 0.00 | 53 | 1021.8 |
| 20260506080146 | 29 | 312 | 0.0 | 0.0 | 0.00 | 0.00 | 0.00 | 53 | 1022.1 |
| 20260506073130 | 25 | 322 | 0.0 | 0.0 | 0.00 | 0.00 | 0.00 | 57 | 1022.3 |
| 20260506072626 | 25 | 293 | 0.0 | 0.0 | 0.00 | 0.00 | 0.00 | 58 | 1022.4 |
| 20260506072125 | 25 | 285 | 0.0 | 0.0 | 0.00 | 0.00 | 0.00 | 62 | 1022.6 |
| 20260506071622 | 27 | 272 | 0.0 | 0.0 | 0.00 | 0.00 | 0.00 | 61 | 1022.5 |
| 20260506071119 | 29 | 271 | 0.0 | 0.0 | 0.00 | 0.00 | 0.00 | 52 | 1022.4 |
| 20260506070616 | 30 | 259 | 0.0 | 0.0 | 0.00 | 0.00 | 0.00 | 52 | 1022.3 |
| 20260506070114 | 29 | 254 | 0.0 | 0.0 | 0.00 | 0.00 | 0.00 | 57 | 1022.3 |
| 20260506062050 | 32 | 225 | 0.0 | 0.0 | 0.00 | 0.00 | 0.00 | 51 | 1022.4 |
| 20260506061546 | 32 | 223 | 0.0 | 0.0 | 0.00 | 0.00 | 0.00 | 51 | 1022.5 |
| 20260506061044 | 33 | 221 | 0.0 | 0.0 | 0.00 | 0.00 | 0.00 | 47 | 1022.4 |
| 20260506060542 | 33 | 213 | 0.0 | 0.0 | 0.00 | 0.00 | 0.00 | 47 | 1022.5 |
| 20260506051011 | 33 | 313 | 0.0 | 0.0 | 0.00 | 0.00 | 0.00 | 47 | 1022.5 |
| 20260506050509 | 32 | 314 | 0.0 | 0.0 | 0.00 | 0.00 | 0.00 | 47 | 1022.4 |
| 20260506044959 | 34 | 310 | 0.0 | 0.0 | 0.00 | 0.00 | 0.00 | 45 | 1022.6 |
| 20260506044457 | 34 | 309 | 0.0 | 0.0 | 0.00 | 0.00 | 0.00 | 45 | 1022.4 |
| 20260506043954 | 34 | 309 | 0.0 | 0.0 | 0.00 | 0.00 | 0.00 | 45 | 1022.5 |
| 20260506043451 | 34 | 309 | 0.0 | 0.0 | 0.00 | 0.00 | 0.00 | 45 | 1022.4 |
| 20260506042949 | 34 | 309 | 0.0 | 0.0 | 0.00 | 0.00 | 0.00 | 45 | 1022.6 |
| 20260506042448 | 35 | 310 | 0.0 | 0.0 | 0.00 | 0.00 | 0.00 | 44 | 1022.6 |
| 20260506041946 | 35 | 308 | 0.0 | 0.0 | 0.00 | 0.00 | 0.00 | 44 | 1022.6 |
| 20260506041444 | 35 | 306 | 0.0 | 0.0 | 0.00 | 0.00 | 0.00 | 44 | 1022.6 |
| 20260506040941 | 35 | 307 | 0.0 | 0.0 | 0.00 | 0.00 | 0.00 | 44 | 1022.7 |
| 20260506040438 | 35 | 310 | 0.0 | 0.0 | 0.00 | 0.00 | 0.00 | 44 | 1022.7 |
| 20260506035934 | 35 | 311 | 0.0 | 0.0 | 0.00 | 0.00 | 0.00 | 44 | 1022.7 |
| 20260506035432 | 35 | 305 | 0.0 | 0.0 | 0.00 | 0.00 | 0.00 | 43 | 1022.7 |
| 20260506034928 | 36 | 302 | 0.0 | 0.0 | 0.00 | 0.00 | 0.00 | 43 | 1022.8 |
| 20260506034425 | 36 | 304 | 0.0 | 0.0 | 0.00 | 0.00 | 0.00 | 43 | 1022.6 |
| 20260506033922 | 37 | 308 | 0.0 | 0.0 | 0.00 | 0.00 | 0.00 | 42 | 1022.6 |
| 20260506033420 | 37 | 316 | 0.0 | 0.0 | 0.00 | 0.00 | 0.00 | 42 | 1022.6 |
| 20260506032916 | 36 | 303 | 0.0 | 0.0 | 0.00 | 0.00 | 0.00 | 43 | 1022.6 |
| 20260506032413 | 35 | 303 | 0.0 | 0.0 | 0.00 | 0.00 | 0.00 | 44 | 1022.6 |
| 20260506031910 | 36 | 312 | 0.0 | 0.0 | 0.00 | 0.00 | 0.00 | 43 | 1022.6 |
| 20260506031407 | 36 | 309 | 0.0 | 0.0 | 0.00 | 0.00 | 0.00 | 42 | 1022.5 |
| 20260506030905 | 36 | 303 | 0.0 | 0.0 | 0.00 | 0.00 | 0.00 | 43 | 1022.3 |
| 20260506030403 | 37 | 303 | 0.0 | 0.0 | 0.00 | 0.00 | 0.00 | 42 | 1022.3 |
| 20260506025859 | 39 | 309 | 0.0 | 0.0 | 0.00 | 0.00 | 0.00 | 41 | 1022.5 |
| 20260506025356 | 39 | 323 | 0.0 | 0.0 | 0.00 | 0.00 | 0.00 | 40 | 1022.4 |
| 20260506024853 | 40 | 338 | 0.0 | 0.0 | 0.00 | 0.00 | 0.00 | 39 | 1022.4 |
| 20260506024350 | 41 | 345 | 0.0 | 0.0 | 0.00 | 0.00 | 0.00 | 38 | 1022.3 |
| 20260506023846 | 42 | 336 | 0.0 | 0.0 | 0.00 | 0.00 | 0.00 | 37 | 1022.4 |
| 20260506023343 | 42 | 334 | 0.0 | 1.0 | 0.00 | 0.00 | 0.00 | 36 | 1022.2 |
| 20260506022840 | 44 | 337 | 0.0 | 1.0 | 0.00 | 0.00 | 0.00 | 35 | 1022.2 |
| 20260506022337 | 45 | 328 | 1.0 | 3.0 | 0.00 | 0.00 | 0.00 | 34 | 1022.2 |
| 20260506021835 | 45 | 3 | 1.0 | 3.0 | 0.00 | 0.00 | 0.00 | 33 | 1022.2 |
| 20260506021332 | 46 | 356 | 1.0 | 3.0 | 0.00 | 0.00 | 0.00 | 33 | 1022.1 |
| 20260506020828 | 46 | 293 | 1.0 | 2.0 | 0.00 | 0.00 | 0.00 | 32 | 1022.1 |
| 20260506020326 | 47 | 4 | 2.0 | 4.0 | 0.00 | 0.00 | 0.00 | 31 | 1022.2 |
| 20260506015824 | 47 | 351 | 3.0 | 7.0 | 0.00 | 0.00 | 0.00 | 31 | 1022.3 |
| 20260506015321 | 48 | 323 | 2.0 | 6.0 | 0.00 | 0.00 | 0.00 | 31 | 1021.8 |
| 20260506014818 | 48 | 346 | 0.0 | 4.0 | 0.00 | 0.00 | 0.00 | 31 | 1022.1 |
| 20260506014315 | 48 | 28 | 4.0 | 7.0 | 0.00 | 0.00 | 0.00 | 30 | 1022.1 |
| 20260506013811 | 49 | 342 | 2.0 | 4.0 | 0.00 | 0.00 | 0.00 | 30 | 1022.0 |
| 20260506013309 | 50 | 358 | 1.0 | 4.0 | 0.00 | 0.00 | 0.00 | 29 | 1022.0 |
| 20260506012805 | 50 | 313 | 0.0 | 3.0 | 0.00 | 0.00 | 0.00 | 29 | 1021.7 |
| 20260506012307 | 50 | 61 | 4.0 | 7.0 | 0.00 | 0.00 | 0.00 | 29 | 1021.7 |
| 20260506011759 | 50 | 352 | 2.0 | 8.0 | 0.00 | 0.00 | 0.00 | 30 | 1021.8 |
| 20260506011256 | 50 | 321 | 1.0 | 7.0 | 0.00 | 0.00 | 0.00 | 31 | 1021.8 |
| 20260506010754 | 50 | 10 | 2.0 | 4.0 | 0.00 | 0.00 | 0.00 | 30 | 1021.6 |
| 20260506010251 | 50 | 345 | 4.0 | 7.0 | 0.00 | 0.00 | 0.00 | 30 | 1021.7 |
| 20260506005748 | 51 | 21 | 0.0 | 6.0 | 0.00 | 0.00 | 0.00 | 30 | 1021.8 |
| 20260506005245 | 51 | 10 | 1.0 | 7.0 | 0.00 | 0.00 | 0.00 | 30 | 1021.8 |
| 20260506004741 | 51 | 339 | 3.0 | 6.0 | 0.00 | 0.00 | 0.00 | 30 | 1021.6 |
| 20260506004239 | 49 | 358 | 4.0 | 9.0 | 0.00 | 0.00 | 0.00 | 31 | 1021.5 |
| 20260506003734 | 49 | 302 | 2.0 | 3.0 | 0.00 | 0.00 | 0.00 | 31 | 1021.6 |
| 20260506003231 | 51 | 22 | 4.0 | 8.0 | 0.00 | 0.00 | 0.00 | 29 | 1021.7 |
| 20260506002727 | 50 | 347 | 2.0 | 9.0 | 0.00 | 0.00 | 0.00 | 31 | 1021.8 |
| 20260506002223 | 51 | 355 | 4.0 | 8.0 | 0.00 | 0.00 | 0.00 | 30 | 1021.7 |
| 20260506001719 | 52 | 354 | 3.0 | 7.0 | 0.00 | 0.00 | 0.00 | 30 | 1021.7 |
| 20260506001217 | 51 | 352 | 2.0 | 7.0 | 0.00 | 0.00 | 0.00 | 30 | 1021.8 |
| 20260506000713 | 52 | 0 | 2.0 | 7.0 | 0.00 | 0.00 | 0.00 | 29 | 1021.6 |
| 20260506000212 | 52 | 29 | 2.0 | 7.0 | 0.00 | 0.00 | 0.00 | 29 | 1021.6 |
| 20260505235708 | 53 | 23 | 3.0 | 7.0 | 0.00 | 0.00 | 0.00 | 29 | 1021.7 |
| 20260505235206 | 52 | 339 | 1.0 | 9.0 | 0.00 | 0.00 | 0.00 | 28 | 1021.6 |
| 20260505234703 | 52 | 16 | 4.0 | 10.0 | 0.00 | 0.00 | 0.00 | 28 | 1021.6 |
| 20260505234200 | 53 | 344 | 5.0 | 6.0 | 0.00 | 0.00 | 0.00 | 29 | 1021.6 |
| 20260505233656 | 53 | 352 | 4.0 | 8.0 | 0.00 | 0.00 | 0.00 | 28 | 1021.7 |
| 20260505233154 | 54 | 344 | 4.0 | 9.0 | 0.00 | 0.00 | 0.00 | 28 | 1021.6 |
| 20260505232652 | 52 | 334 | 5.0 | 8.0 | 0.00 | 0.00 | 0.00 | 28 | 1021.6 |
| 20260505232149 | 53 | 340 | 3.0 | 9.0 | 0.00 | 0.00 | 0.00 | 28 | 1021.6 |
| 20260505231645 | 52 | 6 | 1.0 | 15.0 | 0.00 | 0.00 | 0.00 | 30 | 1021.6 |
| 20260505231145 | 54 | 346 | 1.0 | 6.0 | 0.00 | 0.00 | 0.00 | 28 | 1021.6 |
| 20260505230642 | 54 | 0 | 2.0 | 9.0 | 0.00 | 0.00 | 0.00 | 28 | 1021.6 |
| 20260505230138 | 55 | 337 | 11.0 | 11.0 | 0.00 | 0.00 | 0.00 | 27 | 1021.5 |
| 20260505225634 | 55 | 16 | 0.0 | 8.0 | 0.00 | 0.00 | 0.00 | 28 | 1021.4 |
| 20260505225131 | 55 | 331 | 4.0 | 9.0 | 0.00 | 0.00 | 0.00 | 27 | 1021.3 |
| 20260505224628 | 55 | 17 | 4.0 | 9.0 | 0.00 | 0.00 | 0.00 | 27 | 1021.4 |
| 20260505224125 | 55 | 1 | 1.0 | 11.0 | 0.00 | 0.00 | 0.00 | 28 | 1021.4 |
| 20260505223622 | 54 | 324 | 1.0 | 6.0 | 0.00 | 0.00 | 0.00 | 29 | 1021.6 |
| 20260505223118 | 54 | 349 | 8.0 | 19.0 | 0.00 | 0.00 | 0.00 | 28 | 1021.3 |
| 20260505222615 | 54 | 14 | 6.0 | 13.0 | 0.00 | 0.00 | 0.00 | 26 | 1021.5 |
| 20260505222111 | 52 | 3 | 2.0 | 4.0 | 0.00 | 0.00 | 0.00 | 30 | 1021.6 |
| 20260505221608 | 54 | 326 | 3.0 | 7.0 | 0.00 | 0.00 | 0.00 | 28 | 1021.7 |
| 20260505221105 | 53 | 345 | 1.0 | 8.0 | 0.00 | 0.00 | 0.00 | 29 | 1021.5 |
| 20260505220602 | 53 | 61 | 0.0 | 7.0 | 0.00 | 0.00 | 0.00 | 30 | 1022.0 |
| 20260505220100 | 50 | 323 | 1.0 | 8.0 | 0.00 | 0.00 | 0.00 | 32 | 1021.7 |
| 20260505215558 | 51 | 8 | 1.0 | 3.0 | 0.00 | 0.00 | 0.00 | 31 | 1021.5 |
| 20260505215055 | 50 | 290 | 4.0 | 7.0 | 0.00 | 0.00 | 0.00 | 32 | 1021.4 |
| 20260505214553 | 51 | 342 | 4.0 | 13.0 | 0.00 | 0.00 | 0.00 | 31 | 1021.6 |
| 20260505214050 | 50 | 351 | 3.0 | 4.0 | 0.00 | 0.00 | 0.00 | 33 | 1021.6 |
| 20260505213548 | 52 | 351 | 4.0 | 8.0 | 0.00 | 0.00 | 0.00 | 30 | 1021.8 |
| 20260505213044 | 52 | 358 | 3.0 | 13.0 | 0.00 | 0.00 | 0.00 | 31 | 1021.7 |
| 20260505212540 | 54 | 358 | 3.0 | 7.0 | 0.00 | 0.00 | 0.00 | 30 | 1021.6 |
| 20260505212038 | 55 | 357 | 1.0 | 4.0 | 0.00 | 0.00 | 0.00 | 29 | 1021.7 |
| 20260505211535 | 53 | 46 | 3.0 | 9.0 | 0.00 | 0.00 | 0.00 | 32 | 1021.6 |
| 20260505211031 | 55 | 15 | 4.0 | 10.0 | 0.00 | 0.00 | 0.00 | 29 | 1021.7 |
| 20260505210528 | 54 | 347 | 5.0 | 14.0 | 0.00 | 0.00 | 0.00 | 28 | 1021.8 |
| 20260505210020 | 55 | 321 | 11.0 | 15.0 | 0.00 | 0.00 | 0.00 | 28 | 1021.8 |
| 20260505205518 | 55 | 316 | 8.0 | 10.0 | 0.00 | 0.00 | 0.00 | 28 | 1021.8 |
| 20260505205015 | 53 | 289 | 5.0 | 16.0 | 0.00 | 0.00 | 0.00 | 31 | 1021.7 |
| 20260505204512 | 53 | 327 | 5.0 | 9.0 | 0.00 | 0.00 | 0.00 | 29 | 1021.7 |
| 20260505204009 | 51 | 334 | 9.0 | 13.0 | 0.00 | 0.00 | 0.00 | 30 | 1021.8 |
| 20260505203505 | 50 | 14 | 2.0 | 13.0 | 0.00 | 0.00 | 0.00 | 31 | 1022.0 |
| 20260505203002 | 53 | 2 | 6.0 | 15.0 | 0.00 | 0.00 | 0.00 | 30 | 1022.0 |
| 20260505202459 | 51 | 29 | 7.0 | 11.0 | 0.00 | 0.00 | 0.00 | 29 | 1021.8 |
| 20260505201955 | 53 | 6 | 8.0 | 13.0 | 0.00 | 0.00 | 0.00 | 31 | 1022.1 |
| 20260505201452 | 53 | 345 | 3.0 | 13.0 | 0.00 | 0.00 | 0.00 | 29 | 1022.0 |
| 20260505200949 | 53 | 280 | 4.0 | 10.0 | 0.00 | 0.00 | 0.00 | 31 | 1021.8 |
| 20260505200447 | 51 | 16 | 7.0 | 15.0 | 0.00 | 0.00 | 0.00 | 31 | 1022.1 |
| 20260505195943 | 51 | 335 | 7.0 | 11.0 | 0.00 | 0.00 | 0.00 | 31 | 1022.0 |
| 20260505195440 | 49 | 346 | 1.0 | 7.0 | 0.00 | 0.00 | 0.00 | 33 | 1022.2 |
| 20260505194937 | 50 | 341 | 6.0 | 10.0 | 0.00 | 0.00 | 0.00 | 32 | 1022.0 |
| 20260505194435 | 51 | 355 | 4.0 | 6.0 | 0.00 | 0.00 | 0.00 | 31 | 1021.8 |
| 20260505193934 | 51 | 347 | 1.0 | 7.0 | 0.00 | 0.00 | 0.00 | 33 | 1022.1 |
| 20260505193432 | 53 | 15 | 1.0 | 7.0 | 0.00 | 0.00 | 0.00 | 30 | 1022.0 |
| 20260505192930 | 50 | 323 | 3.0 | 7.0 | 0.00 | 0.00 | 0.00 | 34 | 1022.0 |
| 20260505192428 | 49 | 323 | 5.0 | 8.0 | 0.00 | 0.00 | 0.00 | 35 | 1022.0 |
| 20260505191925 | 49 | 347 | 2.0 | 13.0 | 0.00 | 0.00 | 0.00 | 35 | 1022.2 |
| 20260505191424 | 49 | 5 | 3.0 | 7.0 | 0.00 | 0.00 | 0.00 | 34 | 1022.1 |
| 20260505190920 | 50 | 333 | 4.0 | 9.0 | 0.00 | 0.00 | 0.00 | 34 | 1022.2 |
| 20260505190415 | 51 | 5 | 3.0 | 9.0 | 0.00 | 0.00 | 0.00 | 33 | 1022.2 |
| 20260505185910 | 51 | 351 | 2.0 | 8.0 | 0.00 | 0.00 | 0.00 | 33 | 1022.3 |
| 20260505185408 | 48 | 346 | 7.0 | 14.0 | 0.00 | 0.00 | 0.00 | 36 | 1022.4 |
| 20260505184904 | 48 | 7 | 5.0 | 11.0 | 0.00 | 0.00 | 0.00 | 37 | 1022.3 |
| 20260505184401 | 49 | 328 | 4.0 | 8.0 | 0.00 | 0.00 | 0.00 | 37 | 1022.2 |
| 20260505183858 | 49 | 334 | 4.0 | 9.0 | 0.00 | 0.00 | 0.00 | 38 | 1022.3 |
| 20260505183355 | 48 | 340 | 5.0 | 7.0 | 0.00 | 0.00 | 0.00 | 40 | 1022.5 |
| 20260505182851 | 48 | 352 | 5.0 | 8.0 | 0.00 | 0.00 | 0.00 | 40 | 1022.4 |
| 20260505182348 | 47 | 8 | 1.0 | 11.0 | 0.00 | 0.00 | 0.00 | 40 | 1022.3 |
| 20260505181845 | 47 | 5 | 5.0 | 10.0 | 0.00 | 0.00 | 0.00 | 39 | 1022.3 |
| 20260505181342 | 50 | 354 | 5.0 | 8.0 | 0.00 | 0.00 | 0.00 | 36 | 1022.4 |
| 20260505180838 | 51 | 24 | 0.0 | 9.0 | 0.00 | 0.00 | 0.00 | 37 | 1022.4 |
| 20260505180335 | 51 | 38 | 2.0 | 13.0 | 0.00 | 0.00 | 0.00 | 35 | 1022.5 |
| 20260505175832 | 49 | 5 | 3.0 | 6.0 | 0.00 | 0.00 | 0.00 | 35 | 1022.4 |
| 20260505175328 | 50 | 351 | 4.0 | 8.0 | 0.00 | 0.00 | 0.00 | 39 | 1022.6 |
| 20260505174825 | 49 | 2 | 4.0 | 8.0 | 0.00 | 0.00 | 0.00 | 37 | 1022.4 |
| 20260505174322 | 51 | 302 | 1.0 | 9.0 | 0.00 | 0.00 | 0.00 | 38 | 1022.5 |
| 20260505173818 | 49 | 22 | 0.0 | 8.0 | 0.00 | 0.00 | 0.00 | 41 | 1022.5 |
| 20260505173314 | 48 | 329 | 2.0 | 7.0 | 0.00 | 0.00 | 0.00 | 40 | 1022.6 |
| 20260505172812 | 45 | 289 | 1.0 | 6.0 | 0.00 | 0.00 | 0.00 | 45 | 1022.5 |
| 20260505172310 | 46 | 346 | 6.0 | 13.0 | 0.00 | 0.00 | 0.00 | 44 | 1022.6 |
| 20260505171804 | 48 | 23 | 1.0 | 8.0 | 0.00 | 0.00 | 0.00 | 41 | 1022.6 |
| 20260505171301 | 48 | 14 | 2.0 | 9.0 | 0.00 | 0.00 | 0.00 | 42 | 1022.7 |
| 20260505170757 | 48 | 15 | 5.0 | 9.0 | 0.00 | 0.00 | 0.00 | 41 | 1022.4 |
| 20260505170255 | 44 | 17 | 1.0 | 7.0 | 0.00 | 0.00 | 0.00 | 45 | 1022.6 |
| 20260505165750 | 45 | 351 | 2.0 | 8.0 | 0.00 | 0.00 | 0.00 | 44 | 1022.7 |
| 20260505165246 | 44 | 342 | 6.0 | 10.0 | 0.00 | 0.00 | 0.00 | 46 | 1022.8 |
| 20260505164742 | 44 | 0 | 8.0 | 10.0 | 0.00 | 0.00 | 0.00 | 46 | 1022.8 |
| 20260505164239 | 44 | 6 | 4.0 | 9.0 | 0.00 | 0.00 | 0.00 | 46 | 1022.7 |
| 20260505163737 | 47 | 316 | 6.0 | 9.0 | 0.00 | 0.00 | 0.00 | 44 | 1022.6 |
| 20260505163236 | 47 | 13 | 4.0 | 8.0 | 0.00 | 0.00 | 0.00 | 46 | 1022.7 |
| 20260505162732 | 47 | 325 | 6.0 | 8.0 | 0.00 | 0.00 | 0.00 | 45 | 1022.6 |
| 20260505162229 | 44 | 340 | 3.0 | 6.0 | 0.00 | 0.00 | 0.00 | 50 | 1022.7 |
| 20260505161726 | 45 | 340 | 5.0 | 8.0 | 0.00 | 0.00 | 0.00 | 47 | 1022.7 |
| 20260505161224 | 43 | 0 | 5.0 | 8.0 | 0.00 | 0.00 | 0.00 | 51 | 1022.7 |
| 20260505160721 | 42 | 348 | 3.0 | 9.0 | 0.00 | 0.00 | 0.00 | 53 | 1022.8 |
| 20260505160219 | 43 | 352 | 6.0 | 10.0 | 0.00 | 0.00 | 0.00 | 54 | 1022.9 |
| 20260505153158 | 45 | 334 | 2.0 | 11.0 | 0.00 | 0.00 | 0.00 | 52 | 1022.7 |
| 20260505152655 | 45 | 12 | 1.0 | 4.0 | 0.00 | 0.00 | 0.00 | 53 | 1022.9 |
| 20260505152150 | 45 | 48 | 2.0 | 8.0 | 0.00 | 0.00 | 0.00 | 51 | 1023.0 |
| 20260505151646 | 44 | 313 | 2.0 | 6.0 | 0.00 | 0.00 | 0.00 | 56 | 1022.8 |
| 20260505151144 | 44 | 342 | 2.0 | 9.0 | 0.00 | 0.00 | 0.00 | 53 | 1023.0 |
| 20260505150639 | 42 | 329 | 2.0 | 3.0 | 0.00 | 0.00 | 0.00 | 57 | 1022.9 |
| 20260505150137 | 42 | 327 | 3.0 | 8.0 | 0.00 | 0.00 | 0.00 | 57 | 1022.8 |
| 20260505140605 | 41 | 342 | 0.0 | 1.0 | 0.00 | 0.00 | 0.00 | 52 | 1022.9 |
| 20260505125019 | 39 | 333 | 1.0 | 3.0 | 0.00 | 0.00 | 0.00 | 57 | 1022.5 |
| 20260505124515 | 39 | 337 | 1.0 | 3.0 | 0.00 | 0.00 | 0.00 | 57 | 1022.1 |
| 20260505124012 | 39 | 353 | 2.0 | 6.0 | 0.00 | 0.00 | 0.00 | 56 | 1022.3 |
| 20260505123508 | 39 | 331 | 1.0 | 2.0 | 0.00 | 0.00 | 0.00 | 56 | 1022.2 |
| 20260505123004 | 39 | 312 | 0.0 | 0.0 | 0.00 | 0.00 | 0.00 | 56 | 1022.3 |
| 20260505122502 | 39 | 341 | 1.0 | 2.0 | 0.00 | 0.00 | 0.00 | 56 | 1022.2 |
| 20260505121958 | 38 | 340 | 0.0 | 1.0 | 0.00 | 0.00 | 0.00 | 56 | 1022.1 |
| 20260505121455 | 38 | 318 | 0.0 | 0.0 | 0.00 | 0.00 | 0.00 | 56 | 1022.1 |
| 20260505120951 | 38 | 313 | 0.0 | 0.0 | 0.00 | 0.00 | 0.00 | 56 | 1022.2 |
| 20260505120448 | 38 | 307 | 0.0 | 0.0 | 0.00 | 0.00 | 0.00 | 57 | 1022.1 |
| 20260505115947 | 38 | 304 | 0.0 | 0.0 | 0.00 | 0.00 | 0.00 | 56 | 1022.3 |
| 20260505115443 | 38 | 313 | 0.0 | 0.0 | 0.00 | 0.00 | 0.00 | 55 | 1022.3 |
| 20260505114941 | 39 | 306 | 0.0 | 0.0 | 0.00 | 0.00 | 0.00 | 55 | 1022.2 |
| 20260505114432 | 39 | 337 | 0.0 | 2.0 | 0.00 | 0.00 | 0.00 | 54 | 1022.0 |
| 20260505113928 | 39 | 310 | 0.0 | 0.0 | 0.00 | 0.00 | 0.00 | 54 | 1022.0 |
| 20260505113425 | 39 | 308 | 0.0 | 0.0 | 0.00 | 0.00 | 0.00 | 53 | 1021.8 |
| 20260505112921 | 39 | 337 | 0.0 | 0.0 | 0.00 | 0.00 | 0.00 | 53 | 1022.1 |
| 20260505112419 | 39 | 309 | 0.0 | 0.0 | 0.00 | 0.00 | 0.00 | 53 | 1022.0 |
| 20260505111914 | 39 | 316 | 0.0 | 0.0 | 0.00 | 0.00 | 0.00 | 54 | 1021.8 |
| 20260505111409 | 39 | 310 | 0.0 | 0.0 | 0.00 | 0.00 | 0.00 | 54 | 1022.0 |
| 20260505110906 | 39 | 322 | 0.0 | 0.0 | 0.00 | 0.00 | 0.00 | 55 | 1021.8 |
| 20260505110403 | 39 | 314 | 0.0 | 0.0 | 0.00 | 0.00 | 0.00 | 56 | 1021.8 |
| 20260505101833 | 38 | 281 | 0.0 | 0.0 | 0.00 | 0.00 | 0.00 | 56 | 1021.7 |
| 20260505101328 | 39 | 269 | 0.0 | 0.0 | 0.00 | 0.00 | 0.00 | 56 | 1021.6 |
| 20260505100824 | 39 | 265 | 0.0 | 0.0 | 0.00 | 0.00 | 0.00 | 55 | 1021.7 |
| 20260505100321 | 39 | 265 | 0.0 | 0.0 | 0.00 | 0.00 | 0.00 | 56 | 1021.7 |
| 20260505095817 | 39 | 264 | 0.0 | 0.0 | 0.00 | 0.00 | 0.00 | 55 | 1021.8 |
| 20260505095315 | 39 | 262 | 0.0 | 0.0 | 0.00 | 0.00 | 0.00 | 55 | 1021.5 |
| 20260505094810 | 39 | 262 | 0.0 | 0.0 | 0.00 | 0.00 | 0.00 | 55 | 1021.4 |
| 20260505094308 | 39 | 260 | 0.0 | 0.0 | 0.00 | 0.00 | 0.00 | 55 | 1021.3 |
| 20260505093803 | 39 | 260 | 0.0 | 0.0 | 0.00 | 0.00 | 0.00 | 55 | 1021.4 |
| 20260505093301 | 39 | 260 | 0.0 | 0.0 | 0.00 | 0.00 | 0.00 | 55 | 1021.5 |
| 20260505092757 | 39 | 260 | 0.0 | 0.0 | 0.00 | 0.00 | 0.00 | 54 | 1021.4 |
| 20260505092256 | 39 | 260 | 0.0 | 0.0 | 0.00 | 0.00 | 0.00 | 54 | 1021.3 |
| 20260505091753 | 39 | 259 | 0.0 | 0.0 | 0.00 | 0.00 | 0.00 | 55 | 1021.4 |
| 20260505091251 | 39 | 259 | 0.0 | 0.0 | 0.00 | 0.00 | 0.00 | 55 | 1021.5 |
| 20260505090748 | 39 | 259 | 0.0 | 0.0 | 0.00 | 0.00 | 0.00 | 55 | 1021.4 |
| 20260505090246 | 39 | 260 | 0.0 | 0.0 | 0.00 | 0.00 | 0.00 | 55 | 1021.4 |
| 20260505085743 | 39 | 265 | 0.0 | 0.0 | 0.00 | 0.00 | 0.00 | 54 | 1021.2 |
| 20260505085242 | 39 | 265 | 0.0 | 0.0 | 0.00 | 0.00 | 0.00 | 55 | 1021.5 |